Location: Clanezzo
(45.7500°N, 9.6000°E)
Time: 09:02:24
(UTC+00:00)

FENGYUN 1C DEB - Visible Passes

Search period start: 26 November 2022 00:00
Search period end: 06 December 2022 00:00
Orbit: 818 x 1016 km, 98.0° (Epoch: 14 September)

Date Brightness Start Highest point End Pass type
(mag) Time Alt. Az. Time Alt. Az. Time Alt. Az.
26 Nov ? 03:13:36 10° NNE 03:15:59 25° NNE 03:15:59 25° NNE visible
26 Nov ? 04:57:10 10° NNW 04:59:21 16° NW 04:59:21 16° NW visible
27 Nov ? 03:20:59 10° N 03:23:12 24° N 03:23:12 24° N visible
27 Nov ? 05:04:53 10° NNW 05:06:35 14° NW 05:06:35 14° NW visible
28 Nov ? 03:28:23 10° N 03:30:26 22° N 03:30:26 22° N visible
28 Nov ? 05:12:41 10° NNW 05:13:48 12° NW 05:13:48 12° NW visible
29 Nov ? 03:35:48 10° N 03:37:39 21° N 03:37:39 21° N visible
29 Nov ? 05:20:40 10° NNW 05:21:02 11° NW 05:21:02 11° NW visible
30 Nov ? 03:43:13 10° N 03:44:54 19° N 03:44:54 19° N visible
01 Dec ? 03:50:38 10° N 03:52:08 18° N 03:52:08 18° N visible
02 Dec ? 03:58:04 10° N 03:59:21 16° N 03:59:21 16° N visible
03 Dec ? 04:05:31 10° N 04:06:36 15° N 04:06:36 15° N visible
04 Dec ? 04:12:59 10° N 04:13:50 14° N 04:13:50 14° N visible
05 Dec ? 04:20:27 10° N 04:21:04 13° N 04:21:04 13° N visible
